Location: *
(58.7167°N, 26.1833°E)
Time: 22:25:01
(UTC+00:00)

Cosmos 1048 Rocket - Pass Details

Date: 25 August 2019
Orbit: 744 x 791 km, 74.0° (Epoch: 21 September)

Event Time Altitude Azimuth Distance (km) Brightness Sun altitude
Rises 19:23:51 0° 328° (NNW) 3,200 9.0 -12.3°
Reaches altitude 10° 19:26:13 10° 326° (NW) 2,272 7.9 -12.5°
Maximum altitude 19:31:19 67° 245° (WSW) 814 4.2 -13.0°
Enters shadow 19:35:22 16° 166° (SSE) 1,881 5.5 -13.3°
